STARLINK-11276, 61244

Orbit data source: Space-Track

STARLINK-11276, 61244 is a payload satellite owned by SpaceX/Seattle (US) in LEO that was launched on Wed, 25 Sep 2024 UTC via an FALCON 9 launch vehicle from the Air Force Western Test Range (AFWTR). Payload-class satellites include a variety of spacecraft equipped with specific instruments for various scientific and technological missions. These include communications satellites like Starlink; space stations such as the ISS; scientific satellites like the Hubble; Earth observation satellites from companies like Planet Labs, Umbra, and HawkEye 360; GPS; miniature CubeSats for education and research; and military/defense satellites.

Loading next visibility...
Identifier
61244, 2024-175B
Orbit
LEO
Country
Flag of USUS
Related business
Manufacturer
SpaceX/Seattle
Mission
Operational Commercial Communications
Bus & Motor
STARLINK V2MD, Unknown motor
Mass
960 kg wet, ~910 kg dry
Launch date (UTC)
2024-09-25 (1 year ago)
Launch vehicle
FALCON 9
Launch site
Air Force Western Test Range (AFWTR)
Object type
Payload
Rocket body
Debris
Shape & HBR
Box + 2 Pan, 14.5 m
Radar Cross Section
36.964 m², Large (>1 m²)

Expand to show TLE details & history
Last TLE update: 15 hours ago

TLE from 15 hours ago
0 STARLINK-11276
1 61244U 24175B   25261.18858900  .00002759  00000-0  27640-4 0  9997
2 61244  53.1588 186.6049 0001207 100.3649 259.7505 15.69694169 56275
Epoch: 2025-09-18T04:31Z
TLE epoch observation values (Epoch: 2025-09-18T04:31:34.089Z)
Latitude
-0.00003°
Longitude
121.35908°
Altitude
360.832 km
Speed
7.694 km/s
True Right ascension
12h 26m 25s
True Declination
0° 00' 00"
Sunlit
Object was in daylight at epoch
Visualization orbit readout
Latitude
Unknown
Longitude
Unknown
Altitude
Unknown
Speed
Unknown
Apparent Right ascension
Unknown
Apparent Declination
Unknown
Sunlit
N/A
Visualization observer readout
Local Sidereal Time
12:26:20
Azimuth
Unknown
Elevation
Unknown
Doppler factor
Unknown
Orbital elements
Apogee altitude
360.846 km
Perigee altitude
359.22 km
Semi-major axis
6,738.17 km
Eccentricity
0.00012
Inclination
53.1588°
RAAN
186.6049°
Arg. of periapsis
100.3649°
True anomaly
259.73689°
Mean anomaly
259.7505°
Eccentric anomaly
259.74369°
Mean motion
3.92401 °/min
Orbital period
91.74 mins
BSTAR
0.00002764
Loading maneuver chart data...
Computing Atmospheric mass density...
Loading historical data...
Loading historical data...
Loading historical data...
Loading historical data...
Loading historical data...
Loading historical data...
Loading historical data...

Documentation

Showing up to 5 results
|